User: anonymous   Login
Location: Morlupo
(42.1333°N, 12.5000°E)
Time: 14:45:39
(UTC+00:00)
Language:

Cosmos 2285 Rocket - Orbit

View from above orbital plane
View from above orbital plane
View from above satellite
View from above satellite

Ground track
Ground track

The orbit data is extracted from the following two-line orbital elements,

1 23190U 94045B   20339.54456532  .00000089  00000-0  11881-3 0  9997
2 23190  74.0269 164.0316 0019739 215.3926 144.5885 13.74095433320912
Epoch (UTC): 04 December 2020 13:04:10
Eccentricity: 0.0019739
inclination: 74.0269°
perigee height: 970 km
apogee height: 999 km
right ascension of ascending node: 164.0316°
argument of perigee: 215.3926°
revolutions per day: 13.74095433
mean anomaly at epoch: 144.5885°
orbit number at epoch: 32091

The dashed part of the orbit path shows where the satellite is in the earth's shadow,  

DLR